QPF
0.00 0.00 0.00 0.02 0.02 0.00 0.00 0.00 0.00 0.00 0.00 0.00 0.00 0.01 0.02 0.02 0.02 0.00 0.00 0.00 0.00 0.00 0.00 0.00 0.02 0.02 0.00 0.00 0.00 0.00 0.00 0.00 0.00 0.00 0.00 0.00 0.00 0.04 0.01 0.00 0.00 0.00 0.01
0.00 0.00 0.01 0.00 0.00 0.00 0.00 0.00 0.00 0.00 0.00 0.00 0.00 0.00 0.01 0.02 0.02 0.01 0.00 0.00 0.00 0.00 0.00 0.00 0.00 0.00 0.00 0.00 0.00 0.00 0.00 0.01 0.07 0.02 0.00 0.00 0.00 0.05 0.02 0.00 0.00 0.00 0.00
0.00 0.00 0.00 0.00 0.00 0.00 0.00 0.00 0.00 0.00 0.00 0.00 0.00 0.00 0.00 0.00 0.00 0.01 0.01 0.00 0.00 0.00 0.03 0.00 0.00 0.00 0.00 0.00 0.00 0.01 0.00 0.00 0.04 0.04 0.00 0.02 0.00 0.04 0.03 0.00 0.00 0.00 0.01
0.00 0.00 0.00 0.00 0.00 0.00 0.00 0.00 0.00 0.00 0.00 0.00 0.00 0.00 0.00 0.00 0.00 0.00 0.00 0.00 0.00 0.00 0.00 0.01 0.01 0.00 0.00 0.01 0.00 0.01 0.01 0.01 0.00 0.01 0.00 0.00 0.00 0.00 0.00 0.00 0.00 0.00 0.00
0.00 0.00 0.00 0.00 0.00 0.00 0.00 0.00 0.00 0.00 0.00 0.00 0.00 0.00 0.00 0.00 0.00 0.00 0.00 0.00 0.00 0.00 0.01 0.00 0.00 0.00 0.02 0.06 0.00 0.00 0.04 0.08 0.02 0.00 0.00 0.00 0.00 0.00 0.00 0.00 0.00 0.00 0.00
0.00 0.00 0.00 0.00 0.00 0.00 0.00 0.00 0.00 0.00 0.00 0.00 0.00 0.00 0.00 0.00 0.00 0.00 0.00 0.00 0.00 0.00 0.01 0.02 0.01 0.01 0.05 0.08 0.01 0.03 0.04 0.07 0.03 0.00 0.00 0.00 0.00 0.00 0.00 0.00 0.00 0.00 0.00
0.00 0.00 0.00 0.00 0.00 0.00 0.00 0.00 0.00 0.00 0.00 0.00 0.00 0.00 0.00 0.00 0.00 0.00 0.00 0.00 0.00 0.00 0.01 0.03 0.08 0.01 0.08 0.09 0.01 0.05 0.03 0.07 0.05 0.00 0.00 0.00 0.00 0.01 0.00 0.00 0.02 0.00 0.00
0.00 0.00 0.00 0.00 0.00 0.00 0.00 0.00 0.00 0.00 0.00 0.00 0.00 0.00 0.00 0.00 0.00 0.00 0.00 0.00 0.00 0.00 0.00 0.00 0.01 0.01 0.02 0.09 0.02 0.04 0.05 0.02 0.04 0.01 0.00 0.00 0.02 0.02 0.00 0.00 0.00 0.00 0.00
0.00 0.00 0.00 0.00 0.00 0.00 0.00 0.00 0.00 0.00 0.00 0.00 0.00 0.00 0.00 0.00 0.00 0.00 0.00 0.00 0.00 0.00 0.00 0.00 0.00 0.00 0.01 0.03 0.03 0.05 0.05 0.05 0.04 0.00 0.00 0.00 0.03 0.02 0.00 0.00 0.00 0.00 0.00
0.00 0.00 0.00 0.00 0.00 0.00 0.00 0.00 0.00 0.00 0.00 0.00 0.00 0.00 0.00 0.00 0.00 0.00 0.00 0.00 0.00 0.00 0.00 0.00 0.00 0.00 0.00 0.00 0.02 0.02 0.02 0.04 0.04 0.02 0.00 0.00 0.01 0.02 0.00 0.00 0.00 0.00 0.00
0.00 0.00 0.00 0.00 0.00 0.00 0.00 0.00 0.00 0.00 0.00 0.00 0.00 0.00 0.00 0.00 0.00 0.00 0.03 0.03 0.01 0.00 0.00 0.00 0.00 0.01 0.00 0.00 0.00 0.00 0.00 0.01 0.00 0.00 0.00 0.01 0.01 0.00 0.00 0.00 0.00 0.00 0.00
0.00 0.00 0.00 0.00 0.00 0.00 0.00 0.00 0.00 0.00 0.00 0.00 0.00 0.00 0.00 0.00 0.00 0.03 0.07 0.06 0.01 0.00 0.00 0.00 0.01 0.03 0.02 0.00 0.02 0.03 0.00 0.00 0.00 0.00 0.01 0.04 0.05 0.01 0.00 0.00 0.00 0.00 0.00
0.00 0.00 0.00 0.00 0.00 0.00 0.00 0.00 0.00 0.00 0.00 0.00 0.00 0.05 0.04 0.00 0.00 0.01 0.04 0.07 0.07 0.04 0.00 0.00 0.01 0.00 0.00 0.01 0.02 0.03 0.04 0.00 0.00 0.01 0.01 0.07 0.04 0.03 0.01 0.00 0.00 0.00 0.00
0.00 0.00 0.00 0.00 0.00 0.00 0.01 0.01 0.00 0.01 0.09 0.13 0.12 0.10 0.02 0.00 0.00 0.00 0.01 0.04 0.05 0.05 0.01 0.00 0.00 0.00 0.00 0.00 0.00 0.04 0.03 0.00 0.00 0.00 0.02 0.02 0.07 0.10 0.03 0.00 0.00 0.00 0.00
0.00 0.00 0.00 0.00 0.00 0.00 0.03 0.09 0.08 0.06 0.01 0.05 0.16 0.09 0.00 0.00 0.00 0.06 0.13 0.17 0.10 0.07 0.02 0.04 0.01 0.00 0.05 0.04 0.00 0.00 0.01 0.07 0.07 0.01 0.00 0.04 0.05 0.06 0.05 0.04 0.01 0.00 0.00
0.00 0.00 0.00 0.05 0.06 0.07 0.07 0.17 0.17 0.06 0.00 0.07 0.12 0.08 0.01 0.00 0.00 0.04 0.06 0.04 0.01 0.03 0.03 0.02 0.00 0.00 0.03 0.06 0.02 0.00 0.00 0.03 0.03 0.02 0.00 0.06 0.12 0.07 0.05 0.06 0.07 0.05 0.03
0.00 0.00 0.00 0.05 0.10 0.10 0.10 0.17 0.17 0.12 0.06 0.02 0.02 0.02 0.00 0.00 0.00 0.01 0.05 0.03 0.03 0.02 0.00 0.00 0.00 0.00 0.00 0.01 0.03 0.01 0.01 0.02 0.00 0.05 0.02 0.00 0.02 0.05 0.03 0.03 0.09 0.12 0.08
0.00 0.00 0.00 0.00 0.08 0.08 0.04 0.02 0.02 0.05 0.09 0.05 0.02 0.02 0.03 0.04 0.02 0.05 0.05 0.10 0.09 0.07 0.05 0.06 0.00 0.00 0.00 0.00 0.00 0.00 0.01 0.00 0.00 0.02 0.07 0.02 0.00 0.00 0.03 0.01 0.05 0.11 0.10
0.00 0.00 0.00 0.06 0.31 0.12 0.02 0.00 0.00 0.06 0.14 0.10 0.05 0.08 0.12 0.08 0.02 0.03 0.01 0.12 0.22 0.04 0.17 0.13 0.10 0.01 0.00 0.00 0.00 0.00 0.00 0.00 0.00 0.00 0.02 0.02 0.00 0.00 0.00 0.01 0.12 0.11 0.09
0.00 0.00 0.03 0.16 0.24 0.13 0.04 0.00 0.00 0.02 0.10 0.08 0.02 0.06 0.16 0.09 0.01 0.02 0.01 0.09 0.18 0.10 0.04 0.09 0.04 0.01 0.00 0.00 0.00 0.01 0.01 0.00 0.01 0.00 0.00 0.00 0.00 0.01 0.00 0.00 0.08 0.06 0.05
0.00 0.02 0.06 0.18 0.22 0.10 0.07 0.04 0.00 0.01 0.09 0.08 0.13 0.07 0.02 0.02 0.01 0.00 0.00 0.00 0.00 0.02 0.07 0.07 0.08 0.04 0.08 0.06 0.07 0.02 0.03 0.01 0.00 0.00 0.00 0.01 0.02 0.08 0.01 0.00 0.06 0.09 0.11
0.00 0.04 0.17 0.10 0.09 0.09 0.04 0.00 0.00 0.01 0.03 0.08 0.16 0.07 0.03 0.01 0.00 0.00 0.01 0.00 0.00 0.00 0.00 0.04 0.10 0.07 0.07 0.06 0.02 0.02 0.00 0.03 0.01 0.00 0.01 0.02 0.02 0.08 0.04 0.06 0.04 0.05 0.15
0.02 0.03 0.07 0.02 0.02 0.01 0.00 0.00 0.00 0.00 0.00 0.00 0.00 0.00 0.00 0.00 0.00 0.03 0.09 0.10 0.02 0.00 0.00 0.00 0.00 0.01 0.04 0.07 0.02 0.03 0.02 0.01 0.01 0.00 0.01 0.02 0.05 0.04 0.09 0.11 0.09 0.03 0.02
0.01 0.03 0.00 0.00 0.00 0.00 0.00 0.00 0.00 0.00 0.00 0.00 0.00 0.00 0.00 0.00 0.00 0.00 0.02 0.03 0.01 0.00 0.00 0.00 0.00 0.00 0.01 0.07 0.10 0.13 0.09 0.02 0.05 0.02 0.06 0.07 0.05 0.01 0.09 0.10 0.08 0.04 0.04
0.00 0.00 0.00 0.00 0.00 0.00 0.00 0.00 0.00 0.00 0.00 0.00 0.00 0.00 0.00 0.00 0.00 0.00 0.00 0.00 0.00 0.00 0.00 0.00 0.00 0.00 0.00 0.00 0.01 0.01 0.07 0.06 0.16 0.13 0.05 0.12 0.10 0.04 0.08 0.07 0.06 0.08 0.15
0.00 0.00 0.00 0.00 0.00 0.00 0.00 0.00 0.00 0.00 0.00 0.00 0.00 0.00 0.00 0.00 0.00 0.00 0.00 0.00 0.00 0.00 0.00 0.00 0.00 0.00 0.00 0.00 0.00 0.01 0.02 0.01 0.04 0.10 0.09 0.06 0.02 0.03 0.07 0.02 0.09 0.16 0.27
MSLP
1013.66 1013.57 1013.55 1013.88 1014.16 1014.42 1014.68 1014.90 1015.09 1015.14 1015.34 1015.51 1015.64 1015.75 1015.85 1015.95 1016.05 1016.10 1016.26 1016.42 1016.51 1016.64 1016.94 1017.19 1017.42 1017.51 1017.49 1017.59 1017.73 1017.83 1017.99 1018.27 1018.30 1018.52 1018.52 1018.68 1018.92 1019.14 1019.03 1019.21 1019.50 1019.56 1019.65
1013.18 1013.58 1013.75 1014.01 1014.24 1014.51 1014.84 1015.05 1015.14 1015.28 1015.45 1015.56 1015.73 1015.97 1016.17 1016.33 1016.52 1016.67 1016.69 1016.73 1016.82 1016.91 1017.06 1017.26 1017.44 1017.62 1017.74 1017.73 1017.94 1018.15 1018.19 1018.37 1018.43 1018.58 1018.65 1018.78 1019.03 1019.33 1019.30 1019.29 1019.59 1019.77 1019.92
1013.30 1013.48 1013.67 1013.96 1014.38 1014.73 1014.96 1015.13 1015.27 1015.48 1015.70 1015.92 1015.99 1016.08 1016.25 1016.36 1016.60 1016.80 1016.95 1016.89 1017.06 1017.08 1017.35 1017.28 1017.38 1017.57 1017.84 1017.87 1018.08 1018.29 1018.32 1018.34 1018.45 1018.60 1018.86 1019.13 1019.08 1019.30 1019.56 1019.58 1019.66 1019.84 1020.11
1013.23 1013.51 1013.86 1014.13 1014.52 1014.82 1015.03 1015.31 1015.45 1015.50 1015.69 1015.90 1016.07 1016.21 1016.38 1016.53 1016.69 1016.83 1016.91 1017.01 1017.20 1017.30 1017.32 1017.43 1017.41 1017.53 1017.81 1017.94 1018.08 1018.26 1018.37 1018.53 1018.65 1018.81 1019.05 1019.09 1019.19 1019.51 1019.75 1019.82 1019.89 1019.91 1020.14
1013.48 1013.64 1013.98 1014.39 1014.64 1014.85 1015.10 1015.34 1015.60 1015.73 1015.90 1016.07 1016.25 1016.38 1016.49 1016.63 1016.83 1016.98 1017.07 1017.18 1017.25 1017.36 1017.52 1017.49 1017.49 1017.54 1017.64 1018.03 1018.09 1018.21 1018.43 1018.57 1018.59 1018.78 1019.11 1019.23 1019.43 1019.64 1019.96 1020.07 1020.15 1020.21 1020.29
1013.45 1013.69 1014.03 1014.32 1014.63 1014.87 1015.17 1015.43 1015.74 1015.94 1016.05 1016.15 1016.26 1016.42 1016.60 1016.80 1016.98 1017.07 1017.11 1017.18 1017.26 1017.37 1017.52 1017.57 1017.54 1017.54 1017.77 1018.09 1018.26 1018.17 1018.52 1018.66 1018.80 1019.13 1019.29 1019.34 1019.49 1019.65 1019.86 1020.16 1020.30 1020.37 1020.47
1013.59 1013.67 1014.03 1014.34 1014.59 1014.90 1015.16 1015.36 1015.58 1015.94 1016.12 1016.34 1016.40 1016.51 1016.66 1016.78 1017.00 1017.17 1017.22 1017.29 1017.39 1017.52 1017.62 1017.65 1017.67 1017.74 1017.78 1018.10 1018.31 1018.56 1018.55 1018.67 1018.91 1019.21 1019.32 1019.43 1019.59 1019.67 1019.79 1019.96 1020.28 1020.51 1020.61
1013.44 1013.79 1014.03 1014.34 1014.64 1014.91 1015.12 1015.42 1015.66 1015.97 1016.23 1016.45 1016.59 1016.65 1016.71 1016.90 1017.05 1017.24 1017.37 1017.57 1017.59 1017.58 1017.62 1017.64 1017.75 1017.80 1017.94 1018.21 1018.50 1018.68 1018.74 1018.66 1018.69 1018.93 1019.24 1019.54 1019.68 1019.70 1019.79 1019.91 1020.18 1020.54 1020.72
1013.55 1013.85 1014.33 1014.55 1014.73 1015.04 1015.22 1015.53 1015.76 1015.94 1016.10 1016.43 1016.58 1016.66 1016.75 1016.90 1017.10 1017.20 1017.42 1017.52 1017.72 1017.80 1017.83 1017.78 1017.87 1018.01 1018.08 1018.14 1018.40 1018.71 1018.76 1018.79 1018.97 1018.97 1019.03 1019.47 1019.71 1019.80 1019.90 1020.01 1020.16 1020.41 1020.71
1013.83 1013.92 1014.27 1014.64 1014.88 1015.07 1015.35 1015.42 1015.71 1015.87 1015.97 1016.22 1016.49 1016.73 1016.81 1016.94 1017.05 1017.27 1017.49 1017.62 1017.69 1017.80 1017.84 1017.78 1017.85 1018.04 1018.09 1017.98 1018.07 1018.41 1018.50 1018.60 1018.79 1018.94 1019.00 1019.26 1019.39 1019.68 1019.87 1020.12 1020.18 1020.33 1020.63
1014.33 1014.32 1014.38 1014.61 1014.96 1014.98 1015.18 1015.47 1015.81 1015.93 1016.02 1016.14 1016.41 1016.68 1016.94 1017.16 1017.14 1017.25 1017.46 1017.60 1017.69 1017.84 1017.92 1017.84 1017.82 1018.03 1018.10 1018.07 1018.10 1018.23 1018.33 1018.72 1018.74 1018.79 1018.98 1018.94 1019.08 1019.29 1019.60 1019.86 1020.10 1020.29 1020.58
1014.30 1014.37 1014.43 1014.45 1014.78 1015.01 1015.13 1015.30 1015.63 1015.96 1016.18 1016.33 1016.45 1016.69 1017.01 1017.15 1017.10 1017.10 1017.13 1017.27 1017.58 1017.66 1017.76 1017.84 1017.92 1018.00 1018.15 1018.24 1018.15 1018.36 1018.54 1018.66 1018.74 1018.81 1018.94 1018.87 1018.92 1019.23 1019.45 1019.68 1019.88 1020.12 1020.40
1013.61 1014.15 1014.40 1014.51 1014.69 1014.98 1015.15 1015.54 1015.82 1015.97 1016.15 1016.40 1016.67 1016.64 1016.55 1016.85 1017.01 1016.89 1016.99 1017.03 1017.27 1017.55 1017.85 1017.84 1017.93 1018.12 1018.25 1018.27 1018.28 1018.42 1018.60 1018.78 1018.82 1018.66 1018.78 1018.81 1018.92 1019.14 1019.39 1019.56 1019.76 1019.97 1020.15
1013.46 1013.72 1014.05 1014.26 1014.55 1014.92 1015.23 1015.52 1015.84 1016.07 1015.88 1015.73 1016.26 1016.67 1016.50 1016.70 1017.08 1016.87 1016.86 1017.01 1017.37 1017.61 1017.92 1018.01 1018.08 1018.29 1018.29 1018.27 1018.31 1018.32 1018.41 1018.45 1018.60 1018.67 1018.66 1018.78 1018.77 1019.06 1019.26 1019.43 1019.69 1019.88 1019.96
1013.28 1013.48 1013.78 1014.12 1014.61 1014.72 1015.01 1015.37 1015.87 1016.08 1016.09 1016.32 1016.13 1016.40 1016.34 1016.72 1016.69 1016.71 1016.81 1016.85 1017.13 1017.43 1017.81 1018.15 1018.01 1018.10 1018.30 1018.31 1018.23 1018.24 1018.14 1018.05 1018.28 1018.24 1018.45 1018.55 1018.65 1018.54 1018.88 1019.17 1019.49 1019.74 1019.92
1012.86 1013.15 1013.62 1014.14 1014.45 1014.67 1015.14 1015.29 1015.66 1016.01 1016.15 1016.28 1016.30 1016.36 1016.15 1016.25 1016.52 1016.63 1016.94 1017.12 1017.26 1017.31 1017.44 1017.69 1017.86 1017.96 1018.09 1018.39 1018.26 1018.24 1018.07 1017.81 1017.77 1018.10 1017.92 1018.16 1018.28 1018.38 1018.50 1018.85 1019.18 1019.43 1019.64
1012.23 1012.73 1013.33 1013.80 1013.98 1014.57 1015.08 1015.14 1015.12 1015.46 1015.88 1016.06 1016.07 1016.20 1016.23 1016.29 1016.32 1016.28 1016.67 1016.96 1017.10 1017.09 1017.13 1017.48 1017.62 1017.87 1018.12 1018.28 1018.61 1018.30 1018.13 1017.89 1017.49 1017.71 1017.76 1017.67 1017.89 1017.99 1018.19 1018.47 1018.70 1019.02 1019.13
1011.85 1012.48 1013.05 1013.42 1014.04 1014.48 1014.90 1014.64 1014.82 1015.08 1015.32 1015.48 1015.47 1015.72 1015.89 1015.92 1015.86 1015.83 1016.26 1016.62 1016.62 1016.91 1016.98 1017.31 1017.49 1017.72 1017.98 1018.08 1018.18 1018.06 1017.79 1017.72 1017.11 1017.23 1017.36 1017.33 1017.43 1017.57 1017.77 1018.08 1018.30 1018.53 1018.74
1011.46 1012.42 1013.00 1013.55 1014.03 1014.35 1014.60 1014.75 1015.07 1015.27 1015.27 1015.21 1015.39 1015.54 1015.75 1015.72 1015.59 1015.63 1015.86 1015.88 1016.15 1016.35 1016.82 1017.07 1017.24 1017.68 1017.71 1017.75 1017.79 1017.63 1017.49 1017.31 1016.59 1016.61 1016.74 1016.87 1016.95 1017.15 1017.25 1017.39 1017.65 1018.07 1018.33
1011.79 1012.63 1013.25 1013.99 1014.10 1014.65 1014.96 1015.14 1015.09 1015.34 1015.11 1015.20 1015.37 1015.45 1015.25 1015.51 1015.48 1015.58 1015.69 1015.77 1016.01 1016.32 1016.59 1016.79 1016.92 1017.19 1017.36 1017.31 1017.36 1017.19 1017.04 1016.86 1016.29 1016.41 1016.50 1016.37 1016.48 1016.78 1017.05 1017.22 1017.39 1017.48 1017.62
1012.40 1013.14 1013.90 1014.29 1014.85 1014.91 1015.14 1015.57 1015.55 1015.41 1015.40 1015.44 1015.25 1015.38 1015.33 1015.47 1015.41 1015.63 1015.65 1015.68 1015.71 1016.11 1016.22 1016.33 1016.62 1016.79 1016.97 1017.08 1017.28 1017.05 1016.72 1016.37 1016.32 1016.34 1016.15 1016.22 1016.34 1016.62 1016.70 1016.85 1017.31 1017.30 1017.24
1012.70 1013.47 1014.20 1014.57 1014.61 1014.67 1014.82 1015.08 1015.33 1015.52 1015.48 1015.31 1015.22 1015.50 1015.32 1015.01 1015.05 1015.22 1015.22 1015.40 1015.42 1015.65 1015.90 1016.09 1016.36 1016.54 1016.46 1016.50 1016.77 1017.31 1017.35 1016.51 1016.10 1015.91 1015.94 1016.11 1016.11 1016.18 1016.29 1016.51 1016.72 1016.85 1016.98
1012.85 1013.50 1014.19 1014.40 1014.39 1014.60 1014.72 1014.88 1015.26 1015.38 1015.35 1015.55 1015.35 1015.04 1014.80 1014.72 1014.79 1014.99 1015.17 1015.27 1015.26 1015.39 1015.46 1015.58 1015.85 1016.06 1016.11 1016.23 1016.07 1016.53 1017.44 1017.25 1016.71 1015.90 1015.73 1015.81 1015.82 1016.17 1016.09 1016.21 1016.35 1016.38 1016.51
1012.92 1013.59 1014.04 1014.39 1014.62 1014.83 1015.06 1014.98 1015.20 1015.58 1015.66 1015.56 1015.40 1015.19 1015.21 1015.00 1014.98 1015.01 1014.97 1014.97 1014.99 1014.97 1015.19 1015.20 1015.27 1015.35 1015.60 1015.95 1016.19 1015.94 1015.88 1016.34 1016.81 1016.71 1016.11 1015.71 1015.65 1015.86 1015.95 1015.98 1015.99 1015.95 1016.24
1013.08 1013.68 1014.18 1014.58 1014.86 1015.22 1015.21 1015.26 1015.45 1015.55 1015.56 1015.45 1015.48 1015.49 1015.40 1015.34 1015.15 1015.27 1015.08 1014.97 1015.01 1014.78 1014.54 1014.65 1014.79 1014.95 1015.24 1015.31 1015.42 1015.73 1016.16 1016.32 1016.31 1016.72 1017.10 1016.59 1016.05 1015.77 1015.92 1015.97 1015.76 1015.83 1016.49
1013.18 1013.66 1014.14 1014.46 1014.77 1015.15 1015.40 1015.50 1015.55 1015.68 1015.84 1015.97 1015.94 1015.96 1015.99 1015.84 1015.72 1015.31 1015.08 1014.86 1014.56 1014.59 1014.49 1014.41 1014.46 1014.61 1014.77 1014.75 1014.81 1014.96 1015.21 1015.74 1016.02 1016.25 1016.84 1017.09 1016.70 1016.25 1016.31 1016.27 1016.11 1016.34 1016.38
Thickness
5789 5790 5788 5785 5783 5781 5779 5778 5777 5779 5778 5777 5776 5774 5773 5773 5773 5773 5772 5771 5770 5770 5768 5765 5764 5764 5764 5764 5763 5762 5758 5755 5753 5752 5751 5749 5747 5746 5745 5743 5741 5740 5738
5795 5789 5787 5784 5782 5780 5778 5776 5776 5775 5774 5775 5775 5772 5770 5770 5768 5767 5767 5768 5768 5769 5767 5765 5764 5763 5763 5763 5762 5761 5759 5757 5756 5755 5754 5751 5748 5746 5746 5744 5742 5741 5739
5794 5790 5788 5784 5780 5777 5776 5775 5775 5773 5771 5771 5771 5771 5770 5769 5767 5765 5765 5766 5765 5765 5764 5765 5764 5764 5763 5763 5761 5761 5760 5760 5758 5757 5754 5752 5750 5749 5747 5745 5744 5742 5740
5792 5789 5785 5783 5779 5777 5776 5774 5774 5774 5772 5771 5770 5770 5768 5767 5766 5765 5765 5764 5763 5763 5764 5764 5764 5764 5762 5763 5762 5761 5761 5760 5759 5758 5757 5755 5752 5750 5748 5747 5745 5744 5742
5789 5787 5784 5780 5778 5777 5776 5774 5772 5772 5771 5770 5768 5768 5768 5767 5765 5763 5763 5762 5762 5762 5761 5762 5763 5764 5763 5761 5762 5762 5760 5761 5761 5760 5758 5757 5754 5751 5749 5747 5745 5744 5743
5790 5788 5784 5782 5779 5777 5775 5773 5770 5769 5769 5769 5768 5767 5766 5765 5763 5763 5763 5763 5762 5762 5761 5761 5762 5764 5762 5759 5760 5763 5759 5759 5760 5758 5757 5757 5755 5753 5750 5748 5746 5745 5744
5790 5788 5784 5782 5779 5776 5774 5773 5772 5769 5767 5765 5766 5765 5764 5763 5760 5760 5760 5761 5761 5760 5759 5760 5760 5760 5759 5758 5758 5759 5759 5757 5758 5756 5755 5755 5755 5753 5752 5750 5748 5745 5744
5792 5788 5784 5782 5780 5777 5775 5772 5770 5767 5765 5763 5763 5763 5763 5761 5759 5757 5756 5755 5756 5758 5758 5759 5758 5758 5757 5757 5756 5756 5757 5757 5757 5757 5756 5754 5754 5753 5752 5751 5749 5746 5744
5791 5787 5782 5781 5780 5777 5775 5771 5769 5766 5764 5763 5762 5762 5762 5760 5758 5756 5753 5753 5752 5753 5754 5756 5755 5755 5755 5757 5757 5755 5756 5756 5757 5758 5757 5755 5752 5752 5751 5750 5750 5748 5745
5791 5788 5784 5780 5778 5776 5774 5772 5769 5767 5766 5762 5760 5758 5758 5757 5756 5755 5753 5751 5750 5750 5751 5753 5754 5754 5754 5758 5758 5757 5758 5758 5759 5759 5759 5756 5754 5753 5752 5750 5749 5748 5746
5787 5786 5783 5779 5776 5776 5773 5770 5766 5765 5763 5761 5758 5755 5754 5754 5755 5754 5752 5750 5750 5748 5748 5751 5753 5752 5753 5756 5757 5758 5758 5757 5759 5760 5759 5759 5756 5754 5753 5752 5749 5747 5745
5784 5784 5784 5781 5777 5773 5771 5770 5767 5762 5761 5760 5757 5754 5752 5752 5753 5753 5753 5752 5749 5749 5748 5749 5750 5751 5751 5753 5755 5754 5755 5755 5756 5757 5758 5758 5757 5754 5752 5751 5750 5748 5745
5790 5785 5784 5781 5776 5771 5768 5765 5763 5761 5759 5757 5754 5755 5755 5752 5751 5752 5752 5751 5750 5748 5747 5747 5747 5746 5746 5748 5750 5750 5750 5752 5753 5754 5754 5754 5755 5753 5750 5749 5749 5749 5747
5793 5789 5786 5780 5775 5767 5763 5761 5757 5756 5757 5757 5754 5751 5753 5752 5749 5750 5749 5750 5747 5745 5744 5744 5744 5742 5743 5743 5745 5746 5746 5748 5750 5751 5752 5751 5753 5751 5749 5748 5747 5746 5746
5796 5792 5789 5782 5775 5769 5765 5762 5756 5754 5751 5749 5753 5750 5752 5749 5750 5748 5748 5749 5748 5744 5741 5740 5742 5742 5741 5741 5742 5743 5744 5746 5746 5749 5750 5749 5751 5754 5750 5748 5746 5745 5744
5797 5794 5789 5781 5776 5771 5765 5761 5757 5756 5750 5748 5750 5751 5753 5752 5751 5748 5744 5745 5744 5742 5741 5739 5739 5740 5738 5737 5738 5738 5740 5744 5746 5745 5748 5751 5749 5751 5750 5747 5745 5745 5743
5801 5796 5789 5783 5777 5770 5763 5759 5759 5758 5752 5751 5752 5751 5752 5751 5750 5749 5746 5745 5744 5741 5740 5739 5739 5737 5736 5734 5732 5733 5734 5738 5742 5743 5744 5749 5749 5749 5749 5748 5745 5744 5744
5805 5796 5789 5787 5775 5769 5764 5761 5758 5754 5754 5754 5754 5753 5752 5750 5750 5749 5747 5747 5745 5741 5741 5737 5737 5735 5733 5731 5730 5730 5732 5736 5742 5743 5745 5747 5749 5749 5748 5746 5745 5744 5743
5808 5795 5787 5781 5769 5766 5761 5757 5750 5748 5751 5752 5753 5753 5750 5750 5750 5749 5747 5749 5746 5743 5739 5737 5736 5732 5730 5729 5728 5732 5734 5736 5745 5745 5748 5748 5749 5749 5748 5747 5745 5743 5742
5806 5795 5785 5775 5773 5762 5755 5751 5749 5745 5749 5750 5750 5750 5752 5749 5748 5748 5747 5746 5744 5740 5737 5736 5735 5731 5728 5729 5729 5732 5734 5736 5743 5745 5745 5747 5749 5747 5747 5745 5744 5743 5743
5799 5788 5779 5771 5762 5759 5750 5741 5739 5742 5746 5747 5749 5747 5749 5749 5747 5745 5743 5742 5740 5737 5737 5735 5733 5731 5729 5729 5726 5727 5732 5737 5739 5740 5741 5744 5747 5745 5745 5745 5741 5742 5743
5795 5785 5776 5768 5764 5759 5752 5743 5738 5738 5742 5746 5747 5744 5745 5749 5748 5745 5744 5741 5741 5737 5736 5735 5732 5728 5729 5729 5724 5718 5714 5725 5735 5738 5740 5740 5744 5744 5744 5743 5742 5741 5741
5791 5782 5775 5770 5766 5759 5755 5749 5743 5742 5744 5744 5746 5748 5749 5749 5747 5744 5742 5741 5740 5738 5736 5735 5731 5728 5724 5726 5729 5721 5707 5707 5718 5732 5735 5738 5741 5740 5741 5741 5741 5740 5740
5789 5781 5775 5770 5765 5759 5755 5750 5746 5739 5739 5743 5746 5747 5746 5745 5743 5742 5743 5742 5741 5739 5736 5735 5733 5730 5726 5721 5723 5727 5727 5722 5712 5712 5726 5733 5737 5737 5738 5741 5741 5741 5738
5786 5778 5772 5767 5761 5756 5754 5753 5748 5746 5746 5747 5746 5743 5743 5744 5743 5739 5740 5739 5738 5739 5739 5737 5734 5730 5725 5724 5724 5721 5720 5719 5720 5714 5708 5717 5727 5733 5733 5734 5738 5737 5730
5784 5776 5770 5766 5762 5756 5751 5749 5747 5745 5742 5740 5740 5739 5736 5737 5737 5737 5737 5738 5740 5738 5737 5735 5734 5731 5727 5727 5727 5726 5722 5717 5716 5715 5708 5708 5714 5723 5725 5728 5730 5727 5727